Flag for Norway Weather past 2 weeks in Sandefjord, Norway

Now
37 °F

Low clouds.


Feels Like: 28 °F
Forecast: 28 / 36 °F
Wind: 16 mph from Southwest

Location: Torp

Current Time: Jan 26, 2015 at 1:41:39 AM

Latest Report: Jan 26, 2015 at 12:50 AM


Visibility: 2 mi

Pressure: 29.92 "Hg

Humidity: 100%

Dew point: 37 °F

Location of SandefjordLocation

Historic Weather in Sandefjord — Graph

°F

Sandefjord temperature yesterday

Maximum temperature yesterday: 36 °F (at 10:20 PM)
Minimum temperature yesterday: 18 °F (at 9:50 AM)
Average temperature yesterday: 28 °F

Past Weeks' High & Low Weather Summary

 TemperatureHumidityPressure
High45 °F (Jan 16, 12:50 PM)100% (Jan 11, 2:20 PM)30.21 "Hg (Jan 11, 2:20 PM)
Low9 °F (Jan 23, 9:50 AM)52% (Jan 11, 3:20 AM)28.68 "Hg (Jan 11, 12:20 AM)
Average33 °F87%29.61 "Hg
* Reported Jan 11 12:20 AM — Jan 26 12:20 AM, Sandefjord, Weather by CustomWeather, © 2014

Note: Actual official high and low records may vary slightly from our data, if they occured in-between our weather recording intervals... More about our weather records

Advertising

Sandefjord weather history for previous 24 hours

 ConditionsComfort  
Time TempWeatherWind HumidityBarometerVisibility
12:20 AM
Jan 26
36 °FFog.12 mph100%29.95 "Hg1 mi
11:50 PM
Jan 25
36 °FFog.12 mph100%29.98 "Hg2 mi
11:20 PM34 °FFog.12 mph93%29.98 "Hg2 mi
10:50 PM36 °FPassing clouds.12 mph87%29.98 "HgN/A
10:20 PM36 °FPartly cloudy.10 mph87%30.01 "HgN/A
9:50 PM34 °FOvercast.9 mph87%30.04 "HgN/A
9:20 PM34 °FPassing clouds.9 mph87%30.04 "HgN/A
8:50 PM34 °FPassing clouds.8 mph100%30.07 "HgN/A
8:20 PM32 °FFog.8 mph100%30.07 "HgN/A
7:50 PM32 °FFog.9 mph100%30.07 "Hg0 mi
7:20 PM32 °FIce fog.7 mph100%30.07 "Hg1 mi
6:50 PM30 °FIce fog.7 mph100%30.09 "Hg2 mi
6:20 PM30 °FIce fog.7 mph100%30.09 "Hg1 mi
5:50 PM30 °FIce fog.6 mph100%30.09 "Hg2 mi
5:20 PM28 °FIce fog.3 mph100%30.09 "Hg2 mi
4:50 PM28 °FIce fog.3 mph100%30.09 "Hg4 mi
4:20 PM28 °FPassing clouds.3 mph100%30.09 "Hg4 mi
3:50 PM28 °FPartly sunny.3 mph93%30.09 "Hg4 mi
3:20 PM28 °FIce fog.2 mph93%30.09 "Hg3 mi
2:50 PM27 °FChilly.3 mph93%30.09 "HgN/A
2:20 PM28 °FFog.2 mph93%30.09 "HgN/A
1:50 PM28 °FChilly.1 mph86%30.12 "HgN/A
1:20 PM28 °FChilly.3 mph93%30.09 "HgN/A
12:50 PM27 °FChilly.3 mph93%30.09 "HgN/A
12:20 PM27 °FLight fog.2 mph93%30.09 "Hg1 mi
11:50 AM27 °FFog.3 mph86%30.09 "HgN/A
11:20 AM27 °FSunny.1 mph80%30.09 "Hg10 mi
10:50 AM25 °FSunny.2 mph86%30.09 "Hg10 mi
10:20 AM25 °FSunny.1 mph93%30.09 "Hg10 mi
9:50 AM18 °FSunny.5 mph93%30.07 "Hg10 mi
9:20 AM23 °FFog.1 mph93%30.09 "HgN/A
8:50 AM19 °FFog.1 mph93%30.07 "HgN/A
8:20 AM21 °FClear.3 mph93%30.07 "Hg10 mi
7:50 AM21 °FClear.3 mph93%30.04 "Hg10 mi
7:20 AM25 °FClear.2 mph86%30.04 "Hg10 mi
6:50 AM25 °FClear.2 mph93%30.01 "Hg10 mi
6:20 AM25 °FClear.5 mph93%30.01 "Hg10 mi
5:50 AM25 °FClear.5 mph93%30.01 "Hg10 mi
5:20 AM25 °FIce fog.2 mph93%29.98 "Hg1 mi
4:50 AM27 °FChilly.3 mph93%29.98 "HgN/A
4:20 AM27 °FChilly.2 mph93%29.95 "Hg6 mi
3:50 AM23 °FCold.2 mph100%29.95 "HgN/A
3:20 AM25 °FCold.1 mph100%29.95 "Hg3 mi
2:50 AM25 °FIce fog.No wind93%29.92 "Hg1 mi
2:20 AM25 °FCold.1 mph100%29.92 "HgN/A
1:50 AM27 °FChilly.2 mph93%29.89 "Hg4 mi
1:20 AM27 °FIce fog.3 mph93%29.89 "Hg1 mi
Weather by CustomWeather, © 2014

See weather overviewHow to use our weather pages